STARLINK-4148 (53293 NORAD) Tracking and Keplerian Element Data

This shows tracking and keplerian element data for the satellite.

Feedback or suggestion? Click here.




ElementValue
Catalog53293
NameSTARLINK-4148
Epoch Orbit130
Epoch Day269.91667824
Epoch Year2022
RAAN84.7003
Inclination53.2154
Eccentricity0.0002633
Argument of Perigee21.9001
Mean Anonmoly130.6563
Mean Motion15.73138898
Decay Rate0.00104556
L11 53293U 22086BD 22269.91667824 .00104556 00000+0 74201-3 0 9991
L22 53293 53.2154 84.7003 0002633 21.9001 130.6563 15.73138898 1304

Live tracking and technical data element details for STARLINK-4148 (NORAD 53293). STARLINK-4148 can be tracked NOW for your location showing map with azimuth and elevation plus other details from your city location.

Track the satellite on the map from your city or location and see movement details for azimuth, elevation, latitude, longitude, range, height, and movement on the map or in text.







IsCatalogInMostPopularTable: catalog: 53293, numindb: 4
Update: records affected: 1



GetName: 53293 STARLINK-4148

Hit Count: updated at: Wed, 28 Sep 2022 22:40:33 GMT